User: anonymous
Location: Unspecified
(0.0000°N, 0.0000°E)
Time: 10:17:11
(UTC+00:00)
Language:

CUTE 1.7 & AOD 2 - Orbit

View from above orbital plane
View from above orbital plane
View from above satellite
View from above satellite

Ground track
Ground track

The orbit data is extracted from the following two-line orbital elements,

1 32785U 08021C   14272.77795303  .00002375  00000-0  28016-3 0   777
2 32785 097.6881 320.5880 0013459 198.9618 226.3666 14.85591043347551
Epoch (UTC): 29 September 2014 18:40:15
Eccentricity: 0.0013459
inclination: 97.6881°
perigee height: 602 km
apogee height: 621 km
right ascension of ascending node: 320.5880°
argument of perigee: 198.9618°
revolutions per day: 14.85591043
mean anomaly at epoch: 226.3666°
orbit number at epoch: 34755

The dashed part of the orbit path shows where the satellite is in the earth's shadow,  

DLR